• In Netherlands
  • List of Countries
  • For 7 days
  • Water Temperature
  • Satellite Maps
  • Weather Map
  • Weather Widgets
  • user-avatar
    Login

    Hourly Weather Yerevan

    Today, 25 February, Saturday

    Time Temperature Precipitation Wind Pressure Humidity
    00:00 -3°C° 0 mm 1 mps 693 mmHg 85%
    01:00 -3°C° 0 mm 1 mps 693 mmHg 84%
    02:00 -4°C° 0 mm 1 mps 693 mmHg 83%
    03:00 -4°C° 0 mm 1 mps 693 mmHg 82%
    04:00 -4°C° 0 mm 1 mps 693 mmHg 82%
    05:00 -4°C° 0 mm 1 mps 693 mmHg 82%
    06:00 -6°C° 0 mm 1 mps 693 mmHg 82%
    07:00 -2°C° 0 mm 1 mps 694 mmHg 83%
    08:00 +1°C° 0 mm 1 mps 695 mmHg 84%
    09:00 +4°C° 0 mm 1 mps 695 mmHg 85%
    10:00 +5°C° 0 mm 1 mps 695 mmHg 86%
    11:00 +6°C° 0 mm 1 mps 694 mmHg 88%
    12:00 +7°C° 0 mm 1 mps 694 mmHg 89%
    13:00 +8°C° 0 mm 1 mps 693 mmHg 89%
    14:00 +8°C° 0 mm 1 mps 693 mmHg 89%
    15:00 +8°C° 0 mm 1 mps 693 mmHg 90%
    16:00 +5°C° 0 mm 1 mps 692 mmHg 90%
    17:00 +1°C° 0 mm 1 mps 691 mmHg 90%
    18:00 -2°C° 0 mm 1 mps 691 mmHg 91%
    19:00 -2°C° 0 mm 1 mps 691 mmHg 90%
    20:00 -3°C° 0 mm 1 mps 691 mmHg 90%
    21:00 -3°C° 0 mm 1 mps 692 mmHg 89%
    22:00 -3°C° 0 mm 1 mps 692 mmHg 88%
    23:00 -3°C° 0 mm 1 mps 692 mmHg 87%

    Tomorrow, 26 February, Sunday

    Time Temperature Precipitation Wind Pressure Humidity
    00:00 -3°C° 0 mm 1 mps 692 mmHg 85%
    01:00 -3°C° 0 mm 1 mps 691 mmHg 85%
    02:00 -3°C° 0 mm 1 mps 691 mmHg 85%
    03:00 -3°C° 0 mm 1 mps 691 mmHg 85%
    04:00 -3°C° 0 mm 1 mps 691 mmHg 85%
    05:00 -3°C° 0 mm 1 mps 691 mmHg 85%
    06:00 -3°C° 0 mm 1 mps 691 mmHg 86%
    07:00 0°C° 0 mm 1 mps 691 mmHg 84%
    08:00 +3°C° 0 mm 1 mps 691 mmHg 82%
    09:00 +5°C° 0 mm 1 mps 692 mmHg 80%
    10:00 +6°C° 0 mm 1 mps 691 mmHg 81%
    11:00 +7°C° 0 mm 1 mps 691 mmHg 82%
    12:00 +8°C° 0 mm 1 mps 690 mmHg 82%
    13:00 +8°C° 0 mm 1 mps 690 mmHg 84%
    14:00 +8°C° 0 mm 1 mps 689 mmHg 85%
    15:00 +9°C° 0 mm 1 mps 689 mmHg 86%
    16:00 +6°C° 0 mm 1 mps 689 mmHg 88%
    17:00 +3°C° 0 mm 1 mps 688 mmHg 90%
    18:00 0°C° 0 mm 1 mps 688 mmHg 91%
    19:00 0°C° 0 mm 1 mps 688 mmHg 91%
    20:00 -1°C° 0 mm 1 mps 689 mmHg 91%
    21:00 -1°C° 0 mm 1 mps 689 mmHg 91%
    22:00 -1°C° 0 mm 1 mps 689 mmHg 91%
    23:00 -2°C° 0 mm 1 mps 690 mmHg 91%

    Day after tomorrow, 27 February, Monday

    Time Temperature Precipitation Wind Pressure Humidity
    00:00 -2°C° 0 mm 1 mps 690 mmHg 91%
    01:00 -2°C° 0 mm 1 mps 690 mmHg 91%
    02:00 -3°C° 0 mm 1 mps 690 mmHg 90%
    03:00 -4°C° 0 mm 0 mps 690 mmHg 90%
    04:00 -4°C° 0 mm 0 mps 690 mmHg 89%
    05:00 -4°C° 0 mm 0 mps 690 mmHg 89%
    06:00 -4°C° 0 mm 0 mps 690 mmHg 89%
    07:00 -1°C° 0 mm 0 mps 691 mmHg 86%
    08:00 +2°C° 0 mm 0 mps 692 mmHg 82%
    09:00 +5°C° 0 mm 0 mps 693 mmHg 79%
    10:00 +7°C° 0 mm 1 mps 693 mmHg 80%
    11:00 +8°C° 0 mm 1 mps 692 mmHg 82%
    12:00 +8°C° 0 mm 1 mps 692 mmHg 83%
    13:00 +8°C° 0 mm 1 mps 691 mmHg 84%
    14:00 +9°C° 0 mm 1 mps 691 mmHg 85%
    15:00 +9°C° 0 mm 1 mps 690 mmHg 86%
    16:00 +6°C° 0 mm 1 mps 690 mmHg 88%
    17:00 +3°C° 0 mm 1 mps 689 mmHg 91%
    18:00 +1°C° 0 mm 1 mps 689 mmHg 93%
    19:00 0°C° 0 mm 1 mps 689 mmHg 93%
    20:00 0°C° 0 mm 1 mps 689 mmHg 92%
    21:00 -1°C° 0 mm 1 mps 690 mmHg 92%
    22:00 -1°C° 0 mm 1 mps 690 mmHg 91%
    23:00 -1°C° 0 mm 1 mps 690 mmHg 89%

    28 February, Tuesday

    Time Temperature Precipitation Wind Pressure Humidity
    00:00 -1°C° 0 mm 1 mps 690 mmHg 88%
    01:00 -1°C° 0 mm 1 mps 690 mmHg 87%
    02:00 -1°C° 0 mm 1 mps 690 mmHg 86%
    03:00 -2°C° 0 mm 1 mps 690 mmHg 85%
    04:00 -2°C° 0 mm 1 mps 690 mmHg 84%
    05:00 -2°C° 0 mm 1 mps 690 mmHg 84%
    06:00 -2°C° 0 mm 1 mps 690 mmHg 83%
    07:00 +1°C° 0 mm 1 mps 691 mmHg 81%
    08:00 +4°C° 0 mm 1 mps 692 mmHg 78%
    09:00 +6°C° 0 mm 0 mps 693 mmHg 76%
    10:00 +8°C° 0 mm 1 mps 693 mmHg 76%
    11:00 +9°C° 0 mm 1 mps 692 mmHg 77%
    12:00 +9°C° 0 mm 1 mps 692 mmHg 78%
    13:00 +10°C° 0 mm 1 mps 692 mmHg 78%
    14:00 +10°C° 0 mm 1 mps 692 mmHg 79%
    15:00 +10°C° 0 mm 1 mps 691 mmHg 79%
    16:00 +7°C° 0 mm 1 mps 691 mmHg 82%
    17:00 +5°C° 0 mm 1 mps 691 mmHg 85%
    18:00 +2°C° 0 mm 1 mps 690 mmHg 87%
    19:00 +1°C° 0 mm 1 mps 691 mmHg 87%
    20:00 +1°C° 0 mm 1 mps 691 mmHg 87%
    21:00 +1°C° 0 mm 1 mps 692 mmHg 87%
    22:00 0°C° 0 mm 1 mps 692 mmHg 87%
    23:00 -1°C° 0 mm 1 mps 691 mmHg 87%

    1 March, Wednesday

    Time Temperature Precipitation Wind Pressure Humidity
    00:00 -2°C° 0 mm 1 mps 691 mmHg 87%
    01:00 -2°C° 0 mm 1 mps 691 mmHg 86%
    02:00 -2°C° 0 mm 1 mps 691 mmHg 84%
    03:00 -2°C° 0 mm 1 mps 691 mmHg 83%
    04:00 -2°C° 0 mm 1 mps 691 mmHg 82%
    05:00 -2°C° 0 mm 1 mps 691 mmHg 81%
    06:00 -2°C° 0 mm 1 mps 692 mmHg 81%
    07:00 +1°C° 0 mm 1 mps 692 mmHg 78%
    08:00 +4°C° 0 mm 1 mps 693 mmHg 75%
    09:00 +7°C° 0 mm 1 mps 694 mmHg 72%
    10:00 +8°C° 0 mm 1 mps 693 mmHg 72%
    11:00 +9°C° 0 mm 1 mps 693 mmHg 73%
    12:00 +10°C° 0 mm 1 mps 692 mmHg 73%
    13:00 +10°C° 0 mm 1 mps 692 mmHg 73%
    14:00 +11°C° 0 mm 1 mps 691 mmHg 74%
    15:00 +11°C° 0 mm 1 mps 691 mmHg 74%
    16:00 +8°C° 0 mm 1 mps 690 mmHg 77%
    17:00 +6°C° 0 mm 1 mps 690 mmHg 80%
    18:00 +4°C° 0 mm 1 mps 690 mmHg 83%
    19:00 +3°C° 0 mm 1 mps 690 mmHg 82%
    20:00 +3°C° 0 mm 1 mps 690 mmHg 82%
    21:00 +2°C° 0 mm 1 mps 690 mmHg 82%
    22:00 +2°C° 0 mm 1 mps 689 mmHg 82%
    23:00 +1°C° 0 mm 1 mps 689 mmHg 82%

    2 March, Thursday

    Time Temperature Precipitation Wind Pressure Humidity
    00:00 +1°C° 0 mm 1 mps 689 mmHg 82%
    01:00 +1°C° 0 mm 1 mps 688 mmHg 81%
    02:00 +1°C° 0 mm 1 mps 688 mmHg 81%
    03:00 0°C° 0 mm 1 mps 687 mmHg 81%
    04:00 +1°C° 0 mm 1 mps 687 mmHg 81%
    05:00 +1°C° 0 mm 1 mps 687 mmHg 80%
    06:00 +1°C° 0 mm 1 mps 687 mmHg 80%
    07:00 +3°C° 0 mm 1 mps 687 mmHg 77%
    08:00 +5°C° 0 mm 0 mps 688 mmHg 74%
    09:00 +7°C° 0 mm 0 mps 688 mmHg 71%
    10:00 +8°C° 0 mm 0 mps 687 mmHg 70%
    11:00 +9°C° 0 mm 0 mps 687 mmHg 70%
    12:00 +11°C° 0 mm 1 mps 686 mmHg 69%
    13:00 +11°C° 0 mm 1 mps 686 mmHg 69%
    14:00 +11°C° 0 mm 1 mps 686 mmHg 70%
    15:00 +11°C° 0 mm 1 mps 685 mmHg 71%
    16:00 +10°C° 0.1 mm 1 mps 685 mmHg 75%
    17:00 +8°C° 0.1 mm 1 mps 685 mmHg 79%
    18:00 +6°C° 0.1 mm 0 mps 685 mmHg 83%
    19:00 +6°C° 0.3 mm 0 mps 686 mmHg 83%
    20:00 +6°C° 0.3 mm 0 mps 686 mmHg 84%
    21:00 +5°C° 0.3 mm 0 mps 686 mmHg 85%
    22:00 +5°C° 0.3 mm 0 mps 686 mmHg 85%
    23:00 +5°C° 0.3 mm 0 mps 686 mmHg 86%
    Show more